Location: Peterborough
(44.3091°N, 78.3197°W)
Time: 06:51:12
(UTC-04:00)

A-11 Canister half - Pass Details

Date: 29 March 2023
Orbit: 1513 x 1686 km, 47.2° (Epoch: 04 June)

Event Time Altitude Azimuth Distance (km) Brightness Sun altitude
Exits shadow 04:17:40 48° 225° (SW) 2,095 9.2 -27.8°
Maximum altitude 04:17:58 49° 220° (SW) 2,092 9.2 -27.7°
Drops below altitude 10° 04:27:29 10° 150° (SSE) 3,919 11.1 -26.3°
Sets 04:30:45 0° 145° (SE) 4,890 11.7 -25.9°
